Flag for Norway Weather past 2 weeks in Gjøvik, Norway

Now
48 °F

Cool.


Feels Like: 48 °F
Forecast: 44 / 67 °F
Wind: 1 mph from East

Location: Lillehammer-Saetherengen

Current Time: Aug 29, 2015 at 5:17:56 AM

Latest Report: Aug 29, 2015 at 3:00 AM


Visibility: N/A

Pressure: 29.80 "Hg

Humidity: 84%

Dew point: 43 °F

Location of GjøvikLocation

Historic Weather in Gjøvik — Graph

°F

Gjøvik temperature yesterday

Maximum temperature yesterday: 67 °F (at 5:00 PM)
Minimum temperature yesterday: 46 °F (at 7:00 AM)
Average temperature yesterday: 57 °F

Past Weeks' High & Low Weather Summary

 TemperatureHumidityPressure
High74 °F (Aug 23, 5:00 PM)96% (Aug 25, 8:00 AM)30.38 "Hg (Aug 25, 8:00 AM)
Low45 °F (Aug 22, 6:00 AM)29% (Aug 19, 6:00 PM)29.44 "Hg (Aug 27, 6:00 PM)
Average59 °F71%30.05 "Hg
* Reported Aug 14 3:00 AM — Aug 29 3:00 AM, Gjøvik, Weather by CustomWeather, © 2015

Note: Actual official high and low records may vary slightly from our data, if they occured in-between our weather recording intervals... More about our weather records

Advertising

Gjøvik weather history for previous 24 hours

 ConditionsComfort  
Time TempWeatherWind HumidityBarometerVisibility
3:00 AM
Sat, Aug 29
48 °FCool.1 mph84%29.80 "HgN/A
2:00 AM49 °FCool.1 mph83%29.78 "HgN/A
1:00 AM51 °FCool.1 mph80%29.76 "HgN/A
11:00 PM
Fri, Aug 28
53 °FCool.1 mph72%29.75 "HgN/A
9:00 PM55 °FCool.1 mph68%29.71 "HgN/A
8:00 PM60 °FRefreshingly cool.No wind51%29.68 "HgN/A
7:00 PM63 °FMild.3 mph46%29.65 "HgN/A
6:00 PM65 °FMild.3 mph41%29.63 "HgN/A
5:00 PM67 °FMild.5 mph39%29.62 "HgN/A
4:00 PM66 °FMild.3 mph37%29.61 "HgN/A
3:00 PM66 °FMild.5 mph38%29.60 "HgN/A
2:00 PM64 °FMild.5 mph46%29.59 "HgN/A
1:00 PM63 °FMild.1 mph59%29.59 "HgN/A
12:00 PM61 °FCool.1 mph64%29.58 "HgN/A
11:00 AM57 °FCool.2 mph74%29.58 "HgN/A
10:00 AM54 °FCool.1 mph86%29.57 "HgN/A
9:00 AM51 °FCool.1 mph94%29.56 "HgN/A
8:00 AM46 °FCool.1 mph96%29.56 "HgN/A
7:00 AM46 °FCool.1 mph94%29.55 "HgN/A
5:00 AM48 °FCool.No wind92%29.50 "HgN/A
Weather by CustomWeather, © 2015

See weather overviewHow to use our weather pages